GW3992 Weather Reports


time (UTC)temp
C
wind
direction
speed
KPH
gust
KPH
rain 1hr
cm
rain 24hr
cm
rain mn
cm
humidity
%
barometer
mb
20260505225832 12 24 0.0 1.6 0.00 0.00 0.00 87 1021.0
20260505225330 12 43 0.0 0.0 0.00 0.00 0.00 86 1020.9
20260505224825 12 11 1.6 1.6 0.00 0.00 0.00 86 1021.0
20260505224323 12 342 1.6 1.6 0.00 0.00 0.00 86 1021.1
20260505223820 13 240 3.2 3.2 0.00 0.00 0.00 86 1021.2
20260505223317 12 314 1.6 1.6 0.00 0.00 0.00 88 1021.1
20260505222812 12 12 0.0 1.6 0.00 0.00 0.00 89 1021.2
20260505222309 12 32 0.0 0.0 0.00 0.00 0.00 90 1021.2
20260505221806 12 9 0.0 0.0 0.00 0.00 0.00 91 1021.1
20260505221302 12 15 0.0 0.0 0.00 0.00 0.00 91 1021.2
20260505220759 12 18 0.0 0.0 0.00 0.00 0.00 91 1021.2
20260505220257 12 35 0.0 0.0 0.00 0.00 0.00 91 1021.3
20260505215755 12 22 0.0 0.0 0.00 0.00 0.00 90 1021.2
20260505215252 12 30 0.0 1.6 0.00 0.00 0.00 91 1021.2
20260505214750 12 8 0.0 0.0 0.00 0.00 0.00 90 1021.4
20260505214247 12 348 0.0 1.6 0.00 0.00 0.00 90 1021.5
20260505213744 12 357 0.0 0.0 0.00 0.00 0.00 89 1021.5
20260505213242 12 15 0.0 1.6 0.00 0.00 0.00 89 1021.2
20260505212737 12 326 1.6 1.6 0.00 0.00 0.00 89 1021.4
20260505212235 12 300 1.6 1.6 0.00 0.00 0.00 89 1021.4
20260505211732 12 36 0.0 0.0 0.00 0.00 0.00 89 1021.2
20260505211229 12 349 1.6 1.6 0.00 0.00 0.00 90 1021.2
20260505210725 12 307 0.0 0.0 0.00 0.00 0.00 90 1021.2
20260505210222 12 24 0.0 0.0 0.00 0.00 0.00 90 1021.1
20260505205720 12 49 0.0 0.0 0.00 0.00 0.00 90 1021.0
20260505205218 12 26 0.0 0.0 0.00 0.00 0.00 90 1021.3
20260505204714 12 36 0.0 0.0 0.00 0.00 0.00 90 1021.1
20260505204212 12 351 0.0 0.0 0.00 0.00 0.00 89 1021.3
20260505203709 12 45 0.0 0.0 0.00 0.00 0.00 89 1021.3
20260505203206 12 41 0.0 0.0 0.00 0.00 0.00 89 1021.2
20260505202701 12 36 0.0 0.0 0.00 0.00 0.00 89 1021.2
20260505202158 12 26 0.0 0.0 0.00 0.00 0.00 89 1021.1
20260505201654 12 71 0.0 0.0 0.00 0.00 0.00 90 1021.1
20260505201152 12 40 0.0 0.0 0.00 0.00 0.00 90 1021.0
20260505200650 12 40 0.0 0.0 0.00 0.00 0.00 90 1020.9
20260505200147 11 62 0.0 0.0 0.00 0.00 0.00 90 1021.1
20260505195642 12 42 0.0 0.0 0.00 0.00 0.00 89 1021.0
20260505195140 12 30 0.0 0.0 0.00 0.00 0.00 89 1021.1
20260505194637 12 26 0.0 0.0 0.00 0.00 0.00 89 1021.2
20260505194133 12 47 0.0 0.0 0.00 0.00 0.00 89 1021.1
20260505193630 12 44 0.0 0.0 0.00 0.00 0.00 88 1021.2
20260505193127 12 36 0.0 0.0 0.00 0.00 0.00 88 1021.2
20260505192626 12 274 3.2 3.2 0.00 0.00 0.00 88 1021.2
20260505192123 12 65 0.0 0.0 0.00 0.00 0.00 88 1021.2
20260505191621 12 65 1.6 1.6 0.00 0.00 0.00 87 1021.4
20260505191119 12 50 0.0 0.0 0.00 0.00 0.00 87 1021.2
20260505190614 12 51 0.0 0.0 0.00 0.00 0.00 88 1021.2
20260505190109 12 41 0.0 0.0 0.00 0.00 0.00 88 1021.3
20260505185601 12 48 0.0 0.0 0.00 0.00 0.00 88 1021.0
20260505185057 12 28 0.0 0.0 0.00 0.00 0.00 88 1020.9
20260505184553 12 30 0.0 0.0 0.00 0.00 0.00 88 1021.0
20260505184050 12 29 0.0 0.0 0.00 0.00 0.00 88 1020.6
20260505183542 12 40 0.0 0.0 0.00 0.00 0.00 87 1020.7
20260505183040 12 40 0.0 1.6 0.00 0.00 0.00 87 1020.8
20260505182535 12 16 0.0 0.0 0.00 0.00 0.00 88 1020.6
20260505182031 12 28 0.0 0.0 0.00 0.00 0.00 89 1020.5
20260505181528 12 37 0.0 0.0 0.00 0.00 0.00 89 1020.4
20260505181026 12 51 0.0 0.0 0.00 0.00 0.00 90 1020.4
20260505180521 11 32 0.0 0.0 0.00 0.00 0.00 90 1020.4
20260505180021 12 35 0.0 0.0 0.00 0.00 0.00 89 1020.3
20260505175515 12 34 0.0 0.0 0.00 0.00 0.00 89 1020.3
20260505175012 12 32 0.0 0.0 0.00 0.00 0.00 88 1020.3
20260505174509 12 309 0.0 0.0 0.00 0.00 0.00 88 1020.2
20260505174005 12 44 0.0 0.0 0.00 0.00 0.00 88 1020.2
20260505173502 12 37 0.0 0.0 0.00 0.00 0.00 88 1019.9
20260505172958 12 44 0.0 0.0 0.00 0.00 0.00 88 1020.1
20260505172457 12 27 0.0 0.0 0.00 0.00 0.00 88 1019.8
20260505171957 12 41 0.0 0.0 0.00 0.00 0.00 87 1020.0
20260505171453 12 56 0.0 0.0 0.00 0.00 0.00 86 1019.8
20260505170950 12 50 0.0 0.0 0.00 0.00 0.00 86 1019.7
20260505170446 12 51 0.0 0.0 0.00 0.00 0.00 86 1019.8
20260505165941 12 70 0.0 0.0 0.00 0.00 0.00 87 1019.6
20260505165438 12 34 0.0 0.0 0.00 0.00 0.00 87 1019.6
20260505164933 12 34 0.0 0.0 0.00 0.00 0.00 88 1019.3
20260505164425 11 348 0.0 0.0 0.00 0.00 0.00 89 1019.3
20260505163922 12 25 0.0 0.0 0.00 0.00 0.00 89 1019.0
20260505163421 12 2 0.0 0.0 0.00 0.00 0.00 88 1019.3
20260505162920 12 278 3.2 3.2 0.00 0.00 0.00 88 1019.2
20260505162415 12 195 3.2 3.2 0.00 0.00 0.00 87 1019.1
20260505161912 12 247 3.2 3.2 0.00 0.00 0.00 87 1019.0
20260505161409 13 247 3.2 3.2 0.00 0.00 0.00 88 1019.1
20260505160907 13 234 3.2 3.2 0.00 0.00 0.00 88 1019.0
20260505160404 13 268 4.8 4.8 0.00 0.00 0.00 88 1018.8
20260505153343 13 265 4.8 4.8 0.00 0.00 0.00 84 1018.9
20260505152840 13 227 3.2 3.2 0.00 0.00 0.00 84 1018.7
20260505152337 13 252 1.6 3.2 0.00 0.00 0.00 83 1018.8
20260505151831 13 216 3.2 3.2 0.00 0.00 0.00 83 1018.6
20260505151328 13 233 3.2 3.2 0.00 0.00 0.00 84 1018.8
20260505150825 13 231 3.2 3.2 0.00 0.00 0.00 82 1018.7
20260505150322 13 251 3.2 3.2 0.00 0.00 0.00 81 1018.7
20260505140246 13 310 4.8 6.4 0.00 0.00 0.00 78 1017.9
20260505130210 13 244 4.8 4.8 0.00 0.00 0.00 76 1017.8
20260505124700 14 240 6.4 6.4 0.00 0.00 0.00 73 1017.9
20260505124157 15 266 6.4 9.7 0.00 0.00 0.00 74 1017.8
20260505123653 15 124 4.8 4.8 0.00 0.00 0.00 72 1018.1
20260505123150 15 251 1.6 3.2 0.00 0.00 0.00 73 1018.0
20260505122646 15 5 1.6 3.2 0.00 0.00 0.00 73 1018.3
20260505122143 15 213 1.6 1.6 0.00 0.00 0.00 74 1018.1
20260505121635 15 199 6.4 9.7 0.00 0.00 0.00 73 1017.9
20260505121131 15 245 4.8 4.8 0.00 0.00 0.00 73 1017.9
20260505120627 15 233 4.8 6.4 0.00 0.00 0.00 74 1017.9
20260505120123 15 281 1.6 3.2 0.00 0.00 0.00 72 1017.8
20260505115618 14 357 1.6 3.2 0.00 0.00 0.00 71 1017.8
20260505115116 14 317 1.6 3.2 0.00 0.00 0.00 77 1017.9
20260505114612 14 241 1.6 3.2 0.00 0.00 0.00 78 1017.8
20260505114108 13 254 3.2 3.2 0.00 0.00 0.00 80 1018.1
20260505113605 13 167 4.8 6.4 0.00 0.00 0.00 80 1018.2
20260505113102 13 273 4.8 6.4 0.00 0.00 0.00 80 1018.2
20260505112558 13 219 6.4 6.4 0.00 0.00 0.00 82 1018.2
20260505112056 13 234 1.6 1.6 0.00 0.00 0.00 82 1018.4
20260505111550 14 265 6.4 9.7 0.00 0.00 0.00 78 1018.3
20260505111046 15 212 3.2 4.8 0.00 0.00 0.00 73 1018.6
20260505110543 15 179 1.6 3.2 0.00 0.00 0.00 72 1018.3
20260505102015 13 93 0.0 0.0 0.00 0.00 0.00 85 1018.5
20260505101514 13 132 0.0 0.0 0.00 0.00 0.00 82 1018.3
20260505101010 13 219 1.6 3.2 0.00 0.00 0.00 84 1018.4
20260505100507 13 128 0.0 0.0 0.00 0.00 0.00 84 1018.6
20260505100004 13 136 0.0 0.0 0.00 0.00 0.00 84 1018.6
20260505095500 13 214 0.0 0.0 0.00 0.00 0.00 83 1018.7
20260505094956 13 237 3.2 3.2 0.00 0.00 0.00 83 1018.8
20260505094453 13 262 1.6 1.6 0.00 0.00 0.00 82 1018.7
20260505093949 13 242 0.0 1.6 0.00 0.00 0.00 82 1018.8
20260505093446 13 138 0.0 0.0 0.00 0.00 0.00 81 1018.3
20260505092943 13 222 0.0 0.0 0.00 0.00 0.00 81 1018.7
20260505092441 13 203 0.0 0.0 0.00 0.00 0.00 79 1018.8
20260505091938 13 149 0.0 0.0 0.00 0.00 0.00 81 1018.6
20260505091436 13 257 0.0 0.0 0.00 0.00 0.00 82 1018.7
20260505090933 13 245 3.2 3.2 0.00 0.00 0.00 81 1018.7
20260505090432 13 164 3.2 3.2 0.00 0.00 0.00 81 1018.7
20260505085928 13 303 0.0 0.0 0.00 0.00 0.00 85 1018.7
20260505085426 13 55 0.0 0.0 0.00 0.00 0.00 86 1018.7
20260505084925 13 50 0.0 0.0 0.00 0.00 0.00 86 1018.7
20260505084422 13 50 0.0 0.0 0.00 0.00 0.00 84 1018.6
20260505083920 13 52 0.0 0.0 0.00 0.00 0.00 83 1018.6
20260505083417 13 94 0.0 0.0 0.00 0.00 0.00 83 1018.6
20260505082913 12 94 0.0 0.0 0.00 0.00 0.00 83 1018.6
20260505082409 13 42 0.0 0.0 0.00 0.00 0.00 82 1018.5
20260505081906 13 234 4.8 4.8 0.00 0.00 0.00 81 1018.6
20260505081403 13 319 1.6 1.6 0.00 0.00 0.00 81 1018.6
20260505080900 13 290 0.0 0.0 0.00 0.00 0.00 81 1018.5
20260505080355 13 197 1.6 1.6 0.00 0.00 0.00 82 1018.5
20260505075851 13 108 0.0 0.0 0.00 0.00 0.00 83 1018.5
20260505075348 13 54 0.0 0.0 0.00 0.00 0.00 84 1018.6
20260505074846 13 35 0.0 0.0 0.00 0.00 0.00 84 1018.7
20260505074343 14 49 0.0 0.0 0.00 0.00 0.00 83 1018.3
20260505073840 13 61 0.0 0.0 0.00 0.00 0.00 85 1018.3
20260505073338 13 28 0.0 0.0 0.00 0.00 0.00 84 1018.3
20260505072834 13 76 0.0 0.0 0.00 0.00 0.00 87 1018.3
20260505072331 12 54 0.0 0.0 0.00 0.00 0.00 88 1018.3
20260505071827 12 54 0.0 0.0 0.00 0.00 0.00 88 1018.3
20260505071323 12 53 0.0 0.0 0.00 0.00 0.00 88 1018.4
20260505070822 12 57 0.0 0.0 0.00 0.00 0.00 88 1018.3
20260505070318 12 140 0.0 0.0 0.00 0.00 0.00 88 1018.2
20260505065813 12 52 0.0 0.0 0.00 0.00 0.00 88 1018.1
20260505065310 12 63 0.0 0.0 0.00 0.00 0.00 89 1018.0
20260505064807 11 61 0.0 0.0 0.00 0.00 0.00 90 1018.1
20260505064304 11 79 0.0 0.0 0.00 0.00 0.00 91 1017.9
20260505063802 11 44 0.0 0.0 0.00 0.00 0.00 92 1017.9
20260505063258 11 54 0.0 0.0 0.00 0.00 0.00 93 1017.8
20260505062755 10 6 0.0 0.0 0.00 0.00 0.00 93 1017.7
20260505062252 10 43 0.0 0.0 0.00 0.00 0.00 93 1017.6
20260505061749 10 42 0.0 0.0 0.00 0.00 0.00 93 1017.6
20260505061247 10 43 0.0 0.0 0.00 0.00 0.00 93 1017.4
20260505060744 10 36 0.0 0.0 0.00 0.00 0.00 92 1017.5
20260505060241 10 44 0.0 0.0 0.00 0.00 0.00 92 1017.5
20260505055736 10 44 0.0 0.0 0.00 0.00 0.00 91 1017.3
20260505055232 10 24 0.0 0.0 0.00 0.00 0.00 90 1017.4
20260505054730 11 283 1.6 3.2 0.00 0.00 0.00 89 1017.3
20260505054227 11 105 0.0 0.0 0.00 0.00 0.00 88 1017.3
20260505053726 12 58 0.0 0.0 0.00 0.00 0.00 86 1017.2
20260505053221 12 56 0.0 0.0 0.00 0.00 0.00 85 1017.3
20260505052719 12 47 0.0 0.0 0.00 0.00 0.00 84 1017.5
20260505052215 12 260 3.2 3.2 0.00 0.00 0.00 83 1017.3
20260505051713 12 14 1.6 1.6 0.00 0.00 0.00 83 1017.2
20260505051211 11 263 1.6 1.6 0.00 0.00 0.00 84 1017.0
20260505050709 11 286 0.0 0.0 0.00 0.00 0.00 86 1016.8
20260505050207 11 267 0.0 0.0 0.00 0.00 0.00 87 1017.1
20260505041637 11 39 0.0 0.0 0.00 0.00 0.00 85 1016.7
20260505041134 11 7 0.0 0.0 0.00 0.00 0.00 84 1016.6
20260505040630 11 41 0.0 0.0 0.00 0.00 0.00 84 1016.5
20260505040128 11 44 0.0 0.0 0.00 0.00 0.00 85 1016.5
20260505035624 11 44 0.0 0.0 0.00 0.00 0.00 86 1016.6
20260505035120 11 8 0.0 0.0 0.00 0.00 0.00 88 1016.7
20260505034617 11 26 0.0 0.0 0.00 0.00 0.00 89 1016.4
20260505034114 11 316 0.0 0.0 0.00 0.00 0.00 90 1016.7
20260505033610 11 33 0.0 0.0 0.00 0.00 0.00 91 1016.6
20260505033109 11 306 0.0 0.0 0.00 0.00 0.00 92 1016.6
20260505032607 11 41 0.0 0.0 0.00 0.00 0.00 92 1016.7
20260505032103 10 35 0.0 0.0 0.00 0.00 0.00 92 1016.7
20260505031601 10 45 0.0 0.0 0.00 0.00 0.00 92 1016.5
20260505031057 10 57 0.0 0.0 0.00 0.00 0.00 91 1016.5
20260505030554 10 60 0.0 0.0 0.00 0.00 0.00 91 1016.3
20260505030049 11 55 0.0 0.0 0.00 0.00 0.00 90 1016.4
20260505025546 11 36 0.0 0.0 0.00 0.00 0.00 90 1016.5
20260505025045 11 40 0.0 0.0 0.00 0.00 0.00 89 1016.0
20260505024542 11 35 0.0 0.0 0.00 0.00 0.00 90 1016.2
20260505024039 11 53 0.0 0.0 0.00 0.00 0.00 90 1016.2
20260505023536 11 37 0.0 0.0 0.00 0.00 0.00 91 1016.5
20260505023033 11 37 0.0 0.0 0.00 0.00 0.00 91 1016.3
20260505022531 10 37 0.0 0.0 0.00 0.00 0.00 92 1016.5
20260505022028 10 37 0.0 0.0 0.00 0.00 0.00 91 1016.5
20260505021524 10 37 0.0 0.0 0.00 0.00 0.00 91 1016.5
20260505021020 10 37 0.0 0.0 0.00 0.00 0.00 91 1016.4
20260505020514 10 37 0.0 0.0 0.00 0.00 0.00 91 1016.3
20260505020012 10 37 0.0 0.0 0.00 0.00 0.00 91 1016.3
20260505015509 10 37 0.0 0.0 0.00 0.00 0.00 91 1016.4
20260505015005 10 37 0.0 0.0 0.00 0.00 0.00 91 1016.4
20260505014502 10 34 0.0 0.0 0.00 0.00 0.00 91 1016.5
20260505014000 11 42 0.0 0.0 0.00 0.00 0.00 90 1016.4
20260505013457 11 42 0.0 0.0 0.00 0.00 0.00 90 1016.4
20260505012954 11 42 0.0 0.0 0.00 0.00 0.00 90 1016.4
20260505012452 11 42 0.0 0.0 0.00 0.00 0.00 89 1016.4
20260505011948 11 41 0.0 0.0 0.00 0.00 0.00 89 1016.5
20260505011444 11 38 0.0 0.0 0.00 0.00 0.00 89 1016.6
20260505010941 11 33 0.0 0.0 0.00 0.00 0.00 90 1016.7
20260505010437 11 37 0.0 0.0 0.00 0.00 0.00 90 1016.8
20260505005933 11 49 0.0 0.0 0.00 0.00 0.00 91 1016.7
20260505005430 11 39 0.0 0.0 0.00 0.00 0.00 90 1016.7
20260505004928 11 28 0.0 0.0 0.00 0.00 0.00 90 1016.8
20260505004424 11 48 0.0 0.0 0.00 0.00 0.00 90 1016.9
20260505003921 11 47 0.0 0.0 0.00 0.00 0.00 89 1017.1
20260505003419 11 50 0.0 0.0 0.00 0.00 0.00 89 1016.9
20260505002914 11 51 0.0 0.0 0.00 0.00 0.00 88 1016.9
20260505002411 11 51 0.0 0.0 0.00 0.00 0.00 88 1017.0
20260505001910 11 51 0.0 0.0 0.00 0.00 0.00 88 1017.0
20260505001407 11 45 0.0 0.0 0.00 0.00 0.00 87 1017.0
20260505000904 11 49 0.0 0.0 0.00 0.00 0.00 87 1016.9
20260505000401 11 223 0.0 0.0 0.00 0.00 0.00 86 1017.1
20260504235858 11 47 0.0 0.0 0.00 0.00 0.00 86 1016.9
20260504235355 11 81 0.0 0.0 0.00 0.00 0.00 86 1017.0
20260504234851 11 50 0.0 0.0 0.00 0.00 0.00 86 1017.1
20260504234349 11 35 0.0 0.0 0.00 0.00 0.00 87 1017.2
20260504233845 11 43 0.0 0.0 0.00 0.00 0.00 87 1016.9
20260504233341 11 77 0.0 3.2 0.00 0.00 0.00 88 1016.9
20260504232838 11 88 0.0 0.0 0.00 0.00 0.00 89 1016.9
20260504232335 11 51 0.0 0.0 0.00 0.00 0.00 91 1016.8
20260504231832 11 45 0.0 0.0 0.00 0.00 0.00 92 1016.8
20260504231328 11 29 0.0 0.0 0.00 0.00 0.00 92 1016.9
20260504230825 11 32 0.0 0.0 0.00 0.00 0.00 92 1016.8
20260504230323 11 41 0.0 0.0 0.00 0.00 0.00 92 1016.9